< < Back
Terminal Aerodrome Forecast


Current Version              Previous Versions:   1  2  3  4  5  6  7  8  9  

Terminal Aerodrome Forecast

224
FTUS42 KJAX 181700
TAFJAX
TAF
KJAX 181721Z 1818/1918 09013G20KT 3SM RA BR BKN008 OVC015
     FM181900 12012G19KT 2SM SHRA BR OVC007
     FM190400 18012KT 3SM -SHRA BR OVC009=



Latest METAR

216
SAUS80 KWBC 190200 CCA
MTRJAX
METAR KJAX 190156Z 04005KT 3SM RA BR BKN005 OVC010 18/17 A2993 RMK AO2
RAB49 SLP136 P0001 T01780172 $


USA.gov is the U.S. government's official web portal to all federal, state and local government web resources and services.